QPF
0.01 0.01 0.00 0.00 0.00 0.01 0.02 0.02 0.02 0.03 0.04 0.06 0.07 0.09 0.08 0.10 0.10 0.10 0.10 0.13 0.11 0.07 0.06 0.06 0.06 0.06 0.06 0.05 0.03 0.04 0.05 0.06 0.06 0.07 0.07 0.06 0.06 0.05 0.04 0.03 0.02 0.01 0.02
0.02 0.01 0.01 0.00 0.01 0.01 0.02 0.02 0.02 0.03 0.04 0.05 0.06 0.09 0.09 0.08 0.08 0.07 0.09 0.09 0.09 0.07 0.05 0.05 0.04 0.05 0.06 0.05 0.06 0.06 0.06 0.06 0.06 0.08 0.10 0.08 0.07 0.05 0.03 0.03 0.01 0.01 0.01
0.01 0.02 0.01 0.01 0.01 0.01 0.01 0.01 0.03 0.04 0.03 0.04 0.06 0.08 0.11 0.10 0.07 0.08 0.07 0.05 0.05 0.05 0.04 0.03 0.04 0.05 0.04 0.03 0.05 0.06 0.07 0.06 0.06 0.07 0.08 0.07 0.08 0.06 0.04 0.03 0.01 0.01 0.01
0.01 0.01 0.02 0.02 0.02 0.01 0.01 0.01 0.03 0.04 0.04 0.04 0.04 0.04 0.06 0.07 0.05 0.05 0.05 0.05 0.05 0.04 0.03 0.03 0.04 0.05 0.05 0.04 0.04 0.05 0.07 0.07 0.07 0.06 0.06 0.07 0.07 0.07 0.06 0.04 0.03 0.02 0.02
0.01 0.01 0.02 0.02 0.02 0.02 0.01 0.01 0.03 0.05 0.05 0.04 0.04 0.05 0.05 0.05 0.05 0.05 0.05 0.05 0.06 0.06 0.03 0.03 0.04 0.04 0.05 0.04 0.04 0.06 0.06 0.06 0.06 0.06 0.05 0.06 0.06 0.06 0.07 0.06 0.05 0.04 0.03
0.01 0.01 0.01 0.02 0.02 0.02 0.02 0.02 0.03 0.05 0.06 0.05 0.05 0.06 0.07 0.07 0.05 0.05 0.05 0.05 0.05 0.06 0.04 0.03 0.03 0.03 0.04 0.04 0.04 0.04 0.04 0.04 0.05 0.05 0.04 0.04 0.04 0.05 0.07 0.05 0.04 0.04 0.04
0.01 0.01 0.01 0.01 0.03 0.04 0.04 0.03 0.02 0.03 0.05 0.05 0.05 0.06 0.07 0.08 0.07 0.06 0.05 0.05 0.04 0.04 0.04 0.04 0.03 0.03 0.04 0.03 0.04 0.05 0.04 0.04 0.05 0.05 0.05 0.05 0.05 0.05 0.06 0.07 0.05 0.05 0.05
0.01 0.02 0.02 0.02 0.03 0.03 0.04 0.04 0.03 0.04 0.05 0.06 0.06 0.05 0.06 0.07 0.06 0.07 0.07 0.05 0.03 0.03 0.04 0.03 0.02 0.02 0.02 0.03 0.04 0.04 0.04 0.04 0.04 0.04 0.04 0.05 0.04 0.05 0.06 0.06 0.05 0.05 0.05
0.03 0.04 0.03 0.04 0.03 0.03 0.04 0.03 0.04 0.06 0.07 0.07 0.06 0.06 0.05 0.05 0.06 0.06 0.06 0.05 0.04 0.03 0.04 0.04 0.03 0.03 0.02 0.03 0.04 0.05 0.05 0.04 0.04 0.04 0.04 0.04 0.04 0.05 0.05 0.06 0.05 0.05 0.05
0.06 0.08 0.07 0.07 0.04 0.04 0.03 0.03 0.03 0.06 0.08 0.08 0.07 0.06 0.06 0.06 0.08 0.07 0.06 0.07 0.06 0.06 0.06 0.05 0.04 0.03 0.03 0.03 0.03 0.04 0.04 0.04 0.04 0.03 0.04 0.04 0.04 0.04 0.04 0.04 0.04 0.04 0.04
0.05 0.08 0.11 0.10 0.05 0.05 0.04 0.03 0.03 0.04 0.05 0.06 0.06 0.07 0.07 0.07 0.08 0.07 0.05 0.06 0.06 0.07 0.07 0.05 0.03 0.03 0.02 0.02 0.03 0.03 0.04 0.04 0.05 0.04 0.04 0.04 0.04 0.04 0.04 0.03 0.04 0.04 0.04
0.03 0.05 0.09 0.09 0.05 0.04 0.04 0.04 0.03 0.03 0.03 0.03 0.04 0.06 0.08 0.08 0.07 0.06 0.05 0.05 0.05 0.05 0.05 0.04 0.02 0.02 0.02 0.02 0.03 0.03 0.04 0.04 0.05 0.05 0.05 0.05 0.05 0.04 0.03 0.03 0.03 0.04 0.05
0.06 0.06 0.05 0.05 0.03 0.03 0.03 0.02 0.03 0.03 0.02 0.03 0.03 0.05 0.06 0.07 0.06 0.06 0.05 0.04 0.04 0.04 0.04 0.03 0.03 0.02 0.02 0.03 0.03 0.04 0.05 0.04 0.05 0.06 0.06 0.04 0.04 0.04 0.04 0.03 0.04 0.04 0.04
0.05 0.03 0.02 0.02 0.02 0.03 0.03 0.02 0.02 0.02 0.02 0.03 0.03 0.03 0.03 0.04 0.05 0.04 0.05 0.05 0.05 0.05 0.04 0.04 0.03 0.03 0.03 0.04 0.04 0.05 0.06 0.06 0.07 0.06 0.04 0.04 0.03 0.04 0.04 0.05 0.05 0.06 0.05
0.03 0.02 0.01 0.01 0.02 0.02 0.02 0.02 0.01 0.01 0.01 0.01 0.01 0.01 0.02 0.04 0.04 0.04 0.04 0.05 0.06 0.07 0.07 0.07 0.05 0.05 0.04 0.04 0.05 0.06 0.06 0.07 0.07 0.06 0.05 0.04 0.03 0.03 0.03 0.03 0.05 0.06 0.06
0.05 0.04 0.02 0.01 0.02 0.02 0.02 0.02 0.01 0.01 0.01 0.01 0.01 0.02 0.03 0.03 0.03 0.02 0.03 0.04 0.05 0.06 0.06 0.06 0.05 0.05 0.04 0.04 0.05 0.04 0.05 0.06 0.06 0.06 0.05 0.03 0.02 0.02 0.02 0.02 0.03 0.04 0.05
0.04 0.05 0.05 0.03 0.02 0.01 0.01 0.01 0.01 0.01 0.01 0.01 0.01 0.01 0.02 0.03 0.02 0.02 0.02 0.03 0.04 0.04 0.05 0.05 0.05 0.04 0.04 0.04 0.03 0.03 0.04 0.05 0.06 0.06 0.05 0.03 0.03 0.04 0.03 0.03 0.02 0.02 0.02
0.03 0.04 0.05 0.05 0.03 0.02 0.01 0.01 0.01 0.01 0.01 0.01 0.01 0.01 0.01 0.02 0.02 0.02 0.02 0.02 0.03 0.03 0.03 0.05 0.05 0.04 0.04 0.02 0.02 0.02 0.03 0.03 0.03 0.03 0.04 0.05 0.06 0.05 0.05 0.04 0.03 0.03 0.03
0.02 0.03 0.04 0.04 0.04 0.03 0.01 0.01 0.01 0.01 0.01 0.01 0.01 0.02 0.02 0.01 0.02 0.01 0.02 0.02 0.02 0.02 0.02 0.04 0.04 0.04 0.03 0.02 0.01 0.01 0.01 0.02 0.02 0.02 0.03 0.03 0.04 0.04 0.04 0.03 0.03 0.02 0.03
0.02 0.02 0.03 0.04 0.06 0.05 0.03 0.02 0.01 0.01 0.02 0.03 0.03 0.02 0.02 0.01 0.01 0.01 0.01 0.02 0.02 0.02 0.02 0.03 0.03 0.03 0.03 0.02 0.01 0.01 0.02 0.02 0.02 0.02 0.02 0.02 0.02 0.03 0.02 0.02 0.02 0.02 0.02
0.03 0.02 0.02 0.03 0.05 0.07 0.06 0.04 0.03 0.02 0.02 0.02 0.02 0.02 0.01 0.01 0.02 0.02 0.02 0.03 0.02 0.03 0.03 0.03 0.03 0.03 0.04 0.03 0.01 0.02 0.03 0.04 0.04 0.03 0.03 0.02 0.02 0.01 0.01 0.01 0.01 0.01 0.02
0.03 0.02 0.02 0.02 0.04 0.05 0.07 0.06 0.03 0.02 0.02 0.02 0.02 0.02 0.01 0.01 0.02 0.02 0.03 0.02 0.03 0.03 0.04 0.05 0.04 0.05 0.04 0.03 0.03 0.02 0.02 0.02 0.04 0.04 0.03 0.02 0.02 0.01 0.00 0.00 0.01 0.01 0.02
0.02 0.02 0.01 0.02 0.03 0.04 0.05 0.07 0.05 0.03 0.01 0.01 0.01 0.02 0.01 0.02 0.02 0.02 0.03 0.03 0.03 0.03 0.03 0.03 0.04 0.04 0.04 0.04 0.02 0.01 0.01 0.01 0.02 0.03 0.03 0.01 0.01 0.01 0.00 0.00 0.00 0.01 0.01
0.02 0.02 0.01 0.02 0.02 0.04 0.04 0.05 0.07 0.04 0.03 0.02 0.02 0.02 0.02 0.02 0.02 0.02 0.01 0.02 0.02 0.02 0.02 0.03 0.04 0.04 0.04 0.04 0.03 0.02 0.01 0.01 0.02 0.02 0.01 0.01 0.01 0.00 0.00 0.00 0.01 0.01 0.01
0.02 0.02 0.02 0.03 0.03 0.04 0.04 0.04 0.07 0.07 0.05 0.03 0.02 0.02 0.01 0.01 0.02 0.01 0.01 0.01 0.01 0.01 0.02 0.04 0.05 0.04 0.04 0.03 0.04 0.03 0.02 0.02 0.02 0.03 0.02 0.01 0.01 0.01 0.01 0.01 0.01 0.02 0.02
0.02 0.02 0.02 0.03 0.05 0.05 0.04 0.04 0.06 0.09 0.08 0.04 0.03 0.02 0.01 0.02 0.02 0.01 0.00 0.00 0.00 0.00 0.02 0.04 0.03 0.02 0.02 0.03 0.03 0.02 0.03 0.03 0.03 0.02 0.02 0.02 0.02 0.01 0.02 0.02 0.02 0.02 0.03
MSLP
1003.49 1004.23 1005.06 1005.88 1006.66 1007.34 1007.91 1008.37 1008.73 1009.04 1009.31 1009.56 1009.80 1010.04 1010.28 1010.52 1010.75 1010.98 1011.21 1011.45 1011.72 1012.01 1012.34 1012.68 1013.05 1013.42 1013.80 1014.19 1014.58 1015.00 1015.44 1015.90 1016.40 1016.91 1017.41 1017.87 1018.27 1018.59 1018.81 1018.94 1019.00 1019.01 1019.01
1003.44 1004.26 1005.15 1006.01 1006.80 1007.49 1008.06 1008.53 1008.93 1009.28 1009.60 1009.92 1010.23 1010.52 1010.78 1011.01 1011.20 1011.38 1011.54 1011.72 1011.92 1012.16 1012.45 1012.78 1013.13 1013.50 1013.87 1014.24 1014.61 1014.99 1015.39 1015.82 1016.28 1016.76 1017.25 1017.72 1018.15 1018.50 1018.76 1018.93 1019.02 1019.06 1019.08
1003.33 1004.24 1005.20 1006.11 1006.93 1007.63 1008.21 1008.68 1009.09 1009.46 1009.82 1010.18 1010.53 1010.85 1011.14 1011.37 1011.55 1011.70 1011.82 1011.96 1012.12 1012.34 1012.61 1012.92 1013.27 1013.63 1013.98 1014.33 1014.66 1014.98 1015.33 1015.70 1016.11 1016.55 1017.02 1017.49 1017.93 1018.32 1018.63 1018.85 1019.00 1019.08 1019.12
1003.18 1004.18 1005.21 1006.18 1007.03 1007.74 1008.31 1008.78 1009.18 1009.56 1009.93 1010.31 1010.69 1011.04 1011.36 1011.61 1011.80 1011.95 1012.08 1012.21 1012.37 1012.59 1012.86 1013.17 1013.52 1013.86 1014.20 1014.51 1014.79 1015.06 1015.34 1015.64 1015.98 1016.37 1016.80 1017.25 1017.70 1018.11 1018.47 1018.75 1018.95 1019.08 1019.16
1003.06 1004.12 1005.21 1006.23 1007.11 1007.83 1008.40 1008.85 1009.24 1009.60 1009.97 1010.35 1010.74 1011.12 1011.47 1011.76 1011.99 1012.17 1012.33 1012.49 1012.69 1012.92 1013.21 1013.54 1013.88 1014.23 1014.54 1014.82 1015.06 1015.27 1015.48 1015.71 1015.98 1016.30 1016.67 1017.09 1017.52 1017.94 1018.31 1018.63 1018.88 1019.06 1019.18
1003.06 1004.16 1005.28 1006.32 1007.22 1007.94 1008.50 1008.93 1009.28 1009.62 1009.97 1010.34 1010.74 1011.14 1011.52 1011.85 1012.14 1012.38 1012.60 1012.81 1013.05 1013.33 1013.64 1013.99 1014.35 1014.69 1014.99 1015.25 1015.45 1015.62 1015.77 1015.93 1016.12 1016.37 1016.68 1017.04 1017.43 1017.82 1018.19 1018.52 1018.80 1019.02 1019.17
1003.25 1004.34 1005.46 1006.51 1007.40 1008.11 1008.65 1009.05 1009.38 1009.68 1010.00 1010.36 1010.75 1011.16 1011.56 1011.95 1012.29 1012.60 1012.88 1013.16 1013.45 1013.77 1014.12 1014.48 1014.85 1015.20 1015.50 1015.74 1015.93 1016.07 1016.18 1016.29 1016.42 1016.60 1016.84 1017.12 1017.44 1017.79 1018.13 1018.44 1018.72 1018.96 1019.14
1003.66 1004.71 1005.80 1006.82 1007.69 1008.38 1008.89 1009.27 1009.56 1009.83 1010.11 1010.44 1010.82 1011.23 1011.66 1012.07 1012.47 1012.83 1013.17 1013.51 1013.85 1014.20 1014.57 1014.95 1015.33 1015.68 1015.98 1016.23 1016.42 1016.56 1016.66 1016.74 1016.84 1016.96 1017.13 1017.33 1017.58 1017.85 1018.14 1018.41 1018.67 1018.90 1019.10
1004.28 1005.25 1006.28 1007.24 1008.07 1008.73 1009.21 1009.57 1009.83 1010.08 1010.33 1010.64 1010.99 1011.40 1011.82 1012.26 1012.68 1013.09 1013.47 1013.84 1014.20 1014.57 1014.95 1015.34 1015.72 1016.07 1016.39 1016.66 1016.87 1017.03 1017.14 1017.23 1017.32 1017.41 1017.52 1017.67 1017.84 1018.03 1018.24 1018.47 1018.68 1018.89 1019.08
1005.01 1005.89 1006.83 1007.72 1008.49 1009.11 1009.58 1009.92 1010.17 1010.40 1010.64 1010.92 1011.26 1011.64 1012.07 1012.50 1012.93 1013.35 1013.75 1014.13 1014.51 1014.88 1015.25 1015.63 1016.00 1016.36 1016.69 1016.98 1017.23 1017.43 1017.59 1017.71 1017.81 1017.90 1017.99 1018.09 1018.20 1018.33 1018.47 1018.63 1018.79 1018.97 1019.13
1005.76 1006.52 1007.35 1008.15 1008.86 1009.45 1009.90 1010.24 1010.50 1010.73 1010.97 1011.25 1011.57 1011.94 1012.35 1012.78 1013.20 1013.62 1014.02 1014.40 1014.76 1015.12 1015.47 1015.83 1016.19 1016.54 1016.88 1017.20 1017.49 1017.75 1017.97 1018.15 1018.29 1018.41 1018.50 1018.58 1018.65 1018.73 1018.81 1018.91 1019.03 1019.16 1019.29
1006.41 1007.04 1007.74 1008.44 1009.09 1009.64 1010.09 1010.45 1010.74 1011.00 1011.26 1011.54 1011.86 1012.23 1012.63 1013.04 1013.46 1013.87 1014.27 1014.64 1014.99 1015.33 1015.66 1015.99 1016.33 1016.68 1017.02 1017.36 1017.69 1017.99 1018.28 1018.52 1018.73 1018.89 1019.01 1019.10 1019.16 1019.21 1019.25 1019.31 1019.37 1019.46 1019.57
1006.88 1007.37 1007.94 1008.54 1009.11 1009.64 1010.09 1010.47 1010.81 1011.11 1011.41 1011.73 1012.07 1012.45 1012.85 1013.27 1013.69 1014.10 1014.50 1014.87 1015.21 1015.54 1015.86 1016.17 1016.49 1016.82 1017.15 1017.50 1017.85 1018.20 1018.53 1018.83 1019.10 1019.31 1019.48 1019.59 1019.67 1019.71 1019.74 1019.76 1019.80 1019.85 1019.92
1007.17 1007.51 1007.95 1008.43 1008.93 1009.41 1009.87 1010.29 1010.67 1011.04 1011.40 1011.76 1012.15 1012.56 1012.98 1013.42 1013.86 1014.29 1014.71 1015.09 1015.45 1015.78 1016.09 1016.40 1016.69 1017.00 1017.32 1017.66 1018.02 1018.38 1018.74 1019.08 1019.39 1019.66 1019.87 1020.03 1020.13 1020.18 1020.21 1020.22 1020.23 1020.26 1020.30
1007.31 1007.51 1007.80 1008.16 1008.57 1009.01 1009.46 1009.90 1010.34 1010.77 1011.20 1011.63 1012.07 1012.53 1013.00 1013.48 1013.96 1014.43 1014.88 1015.30 1015.69 1016.05 1016.37 1016.67 1016.96 1017.25 1017.55 1017.87 1018.20 1018.56 1018.92 1019.28 1019.62 1019.92 1020.16 1020.35 1020.49 1020.56 1020.60 1020.61 1020.61 1020.62 1020.64
1007.38 1007.43 1007.58 1007.81 1008.13 1008.51 1008.94 1009.39 1009.87 1010.35 1010.85 1011.35 1011.85 1012.37 1012.90 1013.44 1013.97 1014.50 1015.00 1015.48 1015.91 1016.31 1016.66 1016.97 1017.26 1017.54 1017.81 1018.10 1018.41 1018.74 1019.08 1019.43 1019.77 1020.08 1020.35 1020.57 1020.72 1020.83 1020.88 1020.89 1020.89 1020.89 1020.89
1007.46 1007.37 1007.37 1007.48 1007.69 1008.00 1008.38 1008.83 1009.33 1009.86 1010.40 1010.96 1011.53 1012.12 1012.71 1013.30 1013.90 1014.49 1015.05 1015.59 1016.08 1016.52 1016.90 1017.24 1017.54 1017.81 1018.07 1018.33 1018.61 1018.90 1019.21 1019.54 1019.86 1020.17 1020.44 1020.67 1020.84 1020.96 1021.03 1021.05 1021.05 1021.03 1021.01
1007.59 1007.38 1007.25 1007.23 1007.33 1007.55 1007.88 1008.30 1008.79 1009.34 1009.92 1010.53 1011.16 1011.80 1012.45 1013.10 1013.75 1014.39 1015.01 1015.60 1016.14 1016.62 1017.05 1017.42 1017.73 1018.01 1018.26 1018.51 1018.76 1019.03 1019.31 1019.60 1019.90 1020.19 1020.46 1020.69 1020.87 1020.99 1021.06 1021.09 1021.08 1021.06 1021.02
1007.74 1007.44 1007.21 1007.08 1007.08 1007.21 1007.46 1007.84 1008.31 1008.85 1009.46 1010.10 1010.77 1011.45 1012.15 1012.84 1013.54 1014.22 1014.87 1015.49 1016.06 1016.58 1017.04 1017.44 1017.78 1018.08 1018.35 1018.60 1018.85 1019.10 1019.37 1019.64 1019.92 1020.19 1020.44 1020.66 1020.84 1020.96 1021.03 1021.05 1021.04 1021.00 1020.94
1007.85 1007.49 1007.19 1006.98 1006.88 1006.93 1007.11 1007.43 1007.87 1008.41 1009.02 1009.68 1010.38 1011.10 1011.83 1012.56 1013.27 1013.97 1014.64 1015.27 1015.86 1016.39 1016.87 1017.30 1017.67 1018.00 1018.30 1018.58 1018.85 1019.11 1019.38 1019.65 1019.92 1020.18 1020.42 1020.62 1020.79 1020.90 1020.97 1020.98 1020.96 1020.90 1020.83
1007.81 1007.44 1007.09 1006.83 1006.68 1006.65 1006.78 1007.05 1007.46 1007.98 1008.59 1009.27 1010.00 1010.74 1011.50 1012.24 1012.97 1013.67 1014.33 1014.95 1015.53 1016.07 1016.55 1017.00 1017.40 1017.77 1018.12 1018.44 1018.75 1019.05 1019.35 1019.64 1019.91 1020.16 1020.39 1020.58 1020.73 1020.83 1020.88 1020.89 1020.85 1020.78 1020.69
1007.50 1007.15 1006.82 1006.54 1006.35 1006.30 1006.38 1006.62 1007.00 1007.52 1008.14 1008.84 1009.59 1010.36 1011.14 1011.90 1012.63 1013.32 1013.97 1014.57 1015.13 1015.65 1016.14 1016.59 1017.02 1017.44 1017.83 1018.21 1018.58 1018.93 1019.27 1019.58 1019.86 1020.12 1020.33 1020.51 1020.64 1020.72 1020.76 1020.76 1020.72 1020.64 1020.54
1006.84 1006.56 1006.27 1006.02 1005.84 1005.78 1005.85 1006.08 1006.45 1006.97 1007.61 1008.33 1009.12 1009.93 1010.74 1011.52 1012.26 1012.95 1013.58 1014.16 1014.69 1015.19 1015.67 1016.13 1016.59 1017.04 1017.48 1017.92 1018.34 1018.75 1019.12 1019.46 1019.76 1020.01 1020.21 1020.37 1020.48 1020.55 1020.57 1020.56 1020.52 1020.45 1020.36
1005.81 1005.62 1005.42 1005.23 1005.10 1005.07 1005.16 1005.39 1005.78 1006.31 1006.97 1007.74 1008.56 1009.41 1010.26 1011.08 1011.84 1012.53 1013.16 1013.73 1014.25 1014.74 1015.21 1015.68 1016.15 1016.63 1017.11 1017.60 1018.07 1018.51 1018.91 1019.26 1019.56 1019.80 1019.99 1020.12 1020.20 1020.25 1020.26 1020.25 1020.21 1020.16 1020.09
1004.45 1004.39 1004.30 1004.21 1004.15 1004.17 1004.30 1004.56 1004.97 1005.53 1006.22 1007.02 1007.89 1008.79 1009.69 1010.55 1011.35 1012.07 1012.72 1013.29 1013.82 1014.31 1014.78 1015.26 1015.75 1016.25 1016.76 1017.26 1017.76 1018.22 1018.62 1018.97 1019.25 1019.47 1019.61 1019.71 1019.76 1019.78 1019.79 1019.78 1019.76 1019.74 1019.71
1002.87 1002.95 1003.00 1003.02 1003.07 1003.16 1003.34 1003.64 1004.08 1004.66 1005.37 1006.20 1007.10 1008.05 1009.00 1009.91 1010.76 1011.53 1012.21 1012.83 1013.38 1013.89 1014.38 1014.88 1015.38 1015.89 1016.41 1016.93 1017.42 1017.87 1018.26 1018.58 1018.82 1018.98 1019.09 1019.13 1019.15 1019.15 1019.14 1019.14 1019.15 1019.17 1019.18
Thickness
5788 5787 5784 5780 5774 5769 5764 5761 5758 5756 5754 5750 5746 5743 5741 5740 5739 5739 5738 5736 5734 5733 5731 5729 5727 5726 5724 5723 5723 5721 5719 5718 5719 5716 5714 5717 5719 5718 5718 5717 5716 5715 5714
5782 5779 5776 5772 5768 5763 5760 5757 5754 5752 5750 5747 5745 5742 5739 5739 5737 5735 5734 5733 5731 5730 5729 5726 5724 5723 5721 5720 5720 5718 5715 5715 5716 5712 5708 5705 5707 5711 5715 5714 5713 5712 5712
5776 5772 5769 5766 5764 5759 5756 5754 5750 5748 5746 5744 5741 5739 5736 5734 5732 5730 5729 5730 5729 5727 5726 5724 5722 5720 5719 5717 5716 5715 5712 5710 5712 5712 5706 5700 5698 5702 5707 5709 5709 5709 5708
5777 5770 5764 5761 5759 5758 5756 5752 5748 5745 5743 5741 5737 5734 5730 5729 5729 5727 5726 5726 5726 5725 5723 5721 5720 5718 5717 5714 5713 5712 5711 5709 5706 5707 5707 5705 5703 5696 5695 5700 5705 5705 5704
5774 5768 5763 5760 5758 5756 5752 5749 5745 5741 5739 5737 5735 5732 5729 5728 5727 5726 5723 5722 5722 5722 5720 5718 5716 5714 5713 5712 5710 5709 5708 5706 5704 5703 5703 5701 5701 5700 5694 5690 5694 5697 5700
5773 5767 5764 5760 5755 5752 5749 5745 5740 5737 5736 5734 5733 5729 5727 5726 5723 5721 5719 5718 5718 5717 5717 5715 5712 5711 5709 5707 5707 5705 5704 5703 5702 5701 5700 5698 5696 5694 5693 5689 5690 5690 5694
5769 5763 5759 5755 5750 5747 5744 5740 5736 5733 5732 5730 5728 5727 5725 5723 5721 5719 5717 5715 5714 5712 5712 5711 5708 5707 5705 5704 5703 5701 5701 5699 5698 5697 5696 5697 5696 5696 5693 5690 5687 5687 5690
5764 5760 5756 5751 5747 5743 5739 5736 5732 5729 5728 5726 5724 5724 5723 5720 5719 5717 5716 5713 5712 5710 5709 5707 5704 5703 5702 5701 5700 5698 5697 5696 5694 5694 5693 5693 5693 5694 5692 5689 5685 5681 5682
5757 5754 5750 5746 5742 5738 5735 5732 5728 5725 5724 5722 5720 5720 5719 5717 5715 5714 5712 5711 5710 5708 5706 5703 5700 5699 5698 5697 5696 5694 5693 5693 5691 5690 5690 5689 5689 5690 5689 5688 5685 5679 5674
5752 5748 5744 5740 5736 5733 5731 5728 5725 5722 5720 5718 5716 5715 5714 5712 5711 5710 5707 5706 5705 5703 5700 5698 5697 5695 5694 5694 5692 5691 5690 5689 5688 5687 5686 5686 5686 5686 5686 5685 5684 5682 5676
5745 5742 5738 5734 5730 5728 5726 5724 5721 5718 5715 5713 5712 5710 5708 5707 5706 5704 5703 5701 5700 5698 5696 5694 5693 5692 5691 5690 5689 5687 5686 5685 5684 5684 5683 5683 5682 5681 5681 5681 5680 5678 5676
5739 5736 5732 5728 5725 5722 5720 5719 5717 5713 5711 5709 5706 5704 5703 5701 5700 5699 5697 5696 5695 5694 5692 5691 5690 5689 5688 5687 5685 5683 5683 5681 5680 5680 5679 5679 5678 5677 5676 5675 5674 5674 5673
5731 5728 5725 5722 5719 5717 5716 5714 5711 5708 5707 5705 5701 5699 5697 5696 5694 5693 5692 5691 5690 5689 5688 5687 5685 5684 5684 5683 5682 5680 5679 5678 5677 5676 5675 5674 5673 5671 5671 5670 5669 5669 5669
5725 5721 5718 5716 5714 5712 5710 5707 5705 5703 5701 5699 5696 5693 5692 5691 5690 5688 5688 5687 5686 5685 5684 5683 5682 5680 5679 5678 5678 5676 5675 5674 5673 5672 5671 5670 5668 5667 5666 5665 5664 5664 5663
5717 5714 5711 5708 5707 5705 5703 5701 5698 5696 5695 5693 5691 5689 5687 5687 5685 5684 5683 5683 5682 5682 5680 5678 5676 5676 5675 5674 5673 5671 5670 5669 5667 5666 5666 5665 5663 5662 5661 5660 5659 5658 5657
5710 5707 5705 5703 5700 5698 5696 5694 5692 5690 5688 5686 5685 5684 5683 5682 5680 5679 5679 5678 5677 5676 5675 5673 5671 5670 5670 5669 5667 5665 5664 5663 5661 5660 5660 5659 5658 5657 5656 5655 5654 5653 5651
5702 5699 5697 5696 5693 5692 5690 5688 5687 5685 5683 5681 5679 5679 5677 5676 5676 5675 5673 5672 5671 5670 5668 5667 5665 5664 5663 5662 5660 5659 5658 5657 5656 5656 5655 5655 5655 5653 5652 5650 5649 5648 5647
5695 5692 5691 5689 5688 5686 5685 5683 5682 5680 5677 5675 5674 5673 5672 5671 5670 5668 5667 5666 5665 5664 5662 5661 5661 5659 5658 5656 5655 5653 5652 5652 5651 5651 5650 5649 5648 5648 5646 5645 5644 5643 5643
5687 5685 5685 5683 5681 5680 5678 5676 5674 5672 5671 5670 5669 5668 5667 5665 5663 5661 5661 5660 5659 5657 5657 5656 5655 5654 5652 5651 5649 5647 5647 5646 5646 5646 5646 5645 5643 5642 5640 5639 5638 5638 5638
5679 5678 5678 5677 5674 5673 5673 5669 5667 5666 5664 5664 5664 5663 5661 5659 5657 5655 5654 5653 5652 5651 5651 5650 5650 5649 5648 5646 5644 5640 5641 5640 5640 5641 5641 5641 5639 5637 5635 5633 5632 5631 5632
5671 5670 5670 5668 5667 5667 5666 5662 5661 5659 5659 5659 5658 5656 5654 5652 5651 5649 5648 5647 5646 5646 5645 5645 5645 5644 5643 5641 5638 5635 5635 5636 5635 5635 5635 5635 5634 5631 5629 5628 5627 5627 5627
5662 5662 5660 5660 5660 5660 5658 5655 5653 5654 5654 5652 5650 5648 5647 5646 5645 5643 5641 5641 5640 5639 5638 5638 5638 5638 5637 5636 5634 5631 5630 5629 5629 5630 5631 5630 5627 5625 5624 5622 5623 5622 5620
5654 5655 5654 5653 5653 5653 5652 5648 5647 5648 5648 5646 5643 5641 5640 5640 5639 5637 5635 5634 5634 5633 5633 5632 5632 5632 5632 5631 5630 5627 5625 5624 5624 5625 5624 5623 5621 5620 5619 5618 5617 5616 5615
5646 5647 5647 5646 5645 5646 5645 5643 5643 5642 5641 5638 5636 5635 5634 5633 5633 5632 5631 5630 5629 5628 5628 5627 5627 5627 5628 5627 5625 5622 5620 5618 5617 5617 5616 5615 5615 5614 5614 5613 5612 5611 5611
5639 5639 5639 5639 5638 5638 5638 5638 5637 5635 5634 5632 5630 5629 5629 5628 5626 5626 5626 5626 5625 5625 5623 5624 5624 5623 5622 5621 5619 5617 5617 5615 5614 5611 5610 5610 5610 5610 5610 5610 5610 5610 5609
5630 5630 5631 5631 5631 5631 5631 5631 5631 5629 5626 5625 5624 5624 5624 5623 5623 5622 5621 5620 5620 5620 5619 5619 5619 5618 5617 5615 5614 5612 5611 5610 5608 5606 5607 5607 5607 5608 5608 5608 5609 5609 5609